• Join FlightAware (Why Join?)
  • Login
  • US Flag 
03:16AM EDT


 

Airport Tracker/Info


-or-


 

Live Flight TrackerFlight Track Log ✈ N210PM ✈ 12-Apr-2013 ✈ KDSM - KLNK

Flight Track Log - Related Links

Times and Time Zones

All times are in EDT time to prevent confusion due to time zone crossing. See the N210PM flight status page for this flight to view local times or setup timezone preferences in your user account.

Time Position Orientation Groundspeed Altitude Reporting Facility
EDT Latitude Longitude Course Direction KTS MPH feet Rate Location/Type
02:06PM 41.5494 -93.6631 280° West 156 180 1,600  Level Minneapolis Center
02:07PM 41.5561 -93.7142 280° West 157 181 4,700 3,060 Climbing Minneapolis Center
02:08PM 41.5628 -93.7203 326° Northwest 166 191 5,000 1,140 Climbing Minneapolis Center
02:08PM 41.5539 -93.7939 261° West 203 234 5,900 2,640 Climbing Minneapolis Center
02:09PM 41.5383 -93.8608 253° West 184 212 9,800 2,880 Climbing Minneapolis Center
02:10PM 41.5214 -93.9381 254° West 221 254 11,900 2,520 Climbing Minneapolis Center
02:11PM 41.5044 -94.0114 253° West 196 226 15,100 1,980 Climbing Minneapolis Center
02:12PM 41.4894 -94.0814 254° West 202 232 16,000 420 Climbing Minneapolis Center
02:13PM 41.4653 -94.1850 253° West 269 310 16,000  Level Minneapolis Center
02:14PM 41.4433 -94.2833 253° West 277 319 16,000  Level Minneapolis Center
02:16PM 41.4214 -94.3814 253° West 275 316 16,000  Level Minneapolis Center
02:17PM 41.3969 -94.4856 253° West 273 314 16,000  Level Minneapolis Center
02:18PM 41.3753 -94.5786 253° West 269 310 16,100  Climbing Minneapolis Center
02:19PM 41.3553 -94.6758 255° West 269 310 16,100  Level Minneapolis Center
02:20PM 41.3311 -94.7750 252° West 278 320 16,100  Level Minneapolis Center
02:21PM 41.3094 -94.8733 254° West 278 320 16,100  Level Minneapolis Center
02:22PM 41.2858 -94.9711 252° West 277 319 16,100  Level Minneapolis Center
02:23PM 41.2589 -95.0892 253° West 278 320 16,100  Level Minneapolis Center
02:24PM 41.2358 -95.1869 253° West 277 319 16,100  Level Minneapolis Center
02:25PM 41.2128 -95.2833 252° West 275 316 16,100  Level Minneapolis Center
02:25PM 41.2050 -95.3425 260° West 277 319 16,100  Level Minneapolis Center
02:26PM 41.1889 -95.3822 242° Southwest 278 320 16,100 -120 Level Minneapolis Center
02:27PM 41.1653 -95.4794 252° West 276 318 16,000 -60 Descending Minneapolis Center
02:28PM 41.1425 -95.5769 253° West 276 318 16,000  Level Minneapolis Center
02:29PM 41.1186 -95.6744 252° West 276 318 16,000  Level Minneapolis Center
02:30PM 41.0958 -95.7714 253° West 275 316 16,000 -540 Level Minneapolis Center
02:31PM 41.0681 -95.8794 251° West 260 299 15,000 -1,260 Descending Minneapolis Center
02:32PM 41.0464 -95.9619 251° West 250 288 13,600 -1,620 Descending Minneapolis Center
02:33PM 41.0211 -96.0561 250° West 249 287 11,800 -1,560 Descending Minneapolis Center
02:34PM 40.9828 -96.1406 239° Southwest 255 293 10,300 -1,440 Descending Minneapolis Center
02:35PM 40.9481 -96.2189 240° Southwest 251 289 9,000 -1,320 Descending Minneapolis Center
02:36PM 40.9150 -96.2914 239° Southwest 253 291 7,800 -1,320 Descending Minneapolis Center
02:37PM 40.8897 -96.3550 242° Southwest 254 292 6,800 -1,140 Descending Minneapolis Center
02:37PM 40.8861 -96.3825 260° West 252 290 6,400 -1,080 Descending Minneapolis Center
02:38PM 40.8514 -96.4444 233° Southwest 244 281 5,600 -1,020 Descending Minneapolis Center
02:38PM 40.8544 -96.4631 282° West 250 288 5,400 -1,500 Descending Minneapolis Center
02:39PM 40.8228 -96.5247 236° Southwest 237 273 4,100 -1,800 Descending Minneapolis Center
02:39PM 40.8211 -96.5581 266° West 243 280 3,600 -1,140 Descending Minneapolis Center
02:40PM 40.7942 -96.6047 233° Southwest 239 275 3,000 -600 Descending Minneapolis Center
02:40PM 40.7942 -96.6361 270° West 239 275 3,000 -240 Level Minneapolis Center
02:41PM 40.7750 -96.6672 231° Southwest 181 208 2,800 -540 Descending Minneapolis Center
02:41PM 40.7861 -96.6975 296° West 200 230 2,500 -480 Descending Minneapolis Center
02:42PM 40.7842 -96.7186 263° West 115 132 2,300 -420 Descending Minneapolis Center
02:42PM 40.8033 -96.7372 324° Northwest 155 178 2,100 -540 Descending Minneapolis Center
02:43PM 40.8044 -96.7439 282° West 105 121 1,800 -300 Descending Minneapolis Center
02:43PM 40.8267 -96.7664 323° Northwest 134 154 1,800  Level Minneapolis Center